Flag for Canada Weather past 2 weeks in Montreal, Quebec, Canada

Now
66 °F

Light rain. Mostly cloudy.


Feels Like: 66 °F
Forecast: 60 / 71 °F
Wind: 13 mph from Southwest

Location: Montreal - Pierre Elliot Trudeau International Aiport

Current Time: Jul 1, 2015 at 4:12:58 PM

Latest Report: Jul 1, 2015 at 3:00 PM


Visibility: 10 mi

Pressure: 29.59 "Hg

Humidity: 94%

Dew point: 64 °F

Location of MontrealLocation

Historic Weather in Montreal — Graph

°F

Montreal temperature yesterday

Maximum temperature yesterday: 77 °F (at 2:00 PM)
Minimum temperature yesterday: 57 °F (at 4:00 AM)
Average temperature yesterday: 66 °F

Past Weeks' High & Low Weather Summary

 TemperatureHumidityPressure
High81 °F (Jun 18, 5:00 PM)100% (Jun 29, 4:00 AM)30.22 "Hg (Jun 29, 4:00 AM)
Low50 °F (Jun 20, 5:00 AM)33% (Jun 17, 7:00 PM)29.52 "Hg (Jun 23, 3:00 PM)
Average66 °F68%29.91 "Hg
* Reported Jun 16 3:00 PM — Jul 1 3:00 PM, Montreal, Weather by CustomWeather, © 2015

Note: Actual official high and low records may vary slightly from our data, if they occured in-between our weather recording intervals... More about our weather records

Advertising

Montreal weather history for previous 24 hours

 ConditionsComfort  
Time TempWeatherWind HumidityBarometerVisibility
3:00 PM
Wed, Jul 1
66 °FLight rain. Mostly cloudy.13 mph94%29.59 "Hg10 mi
2:00 PM66 °FLight rain. Fog.9 mph94%29.60 "Hg4 mi
1:00 PM66 °FMore clouds than sun.7 mph94%29.61 "Hg10 mi
12:00 PM66 °FLight rain. More clouds than sun.10 mph94%29.63 "Hg10 mi
11:00 AM66 °FLight rain. Low clouds.9 mph94%29.64 "Hg8 mi
10:00 AM68 °FMostly cloudy.9 mph88%29.65 "Hg15 mi
9:00 AM66 °FMostly cloudy.10 mph88%29.67 "Hg15 mi
8:00 AM66 °FCloudy.9 mph88%29.68 "Hg15 mi
7:00 AM66 °FOvercast.8 mph88%29.70 "Hg15 mi
6:00 AM64 °FMostly cloudy.7 mph94%29.71 "Hg15 mi
5:00 AM64 °FMostly cloudy.5 mph94%29.73 "Hg12 mi
4:00 AM64 °FSprinkles. Mostly cloudy.6 mph94%29.75 "Hg12 mi
3:50 AM64 °FSprinkles. Mostly cloudy.6 mph88%29.75 "Hg12 mi
3:00 AM64 °FOvercast.6 mph88%29.78 "Hg15 mi
2:00 AM64 °FOvercast.6 mph88%29.79 "Hg15 mi
1:45 AM64 °FScattered showers. Overcast.3 mph88%29.80 "Hg15 mi
1:00 AM64 °FLow clouds.7 mph83%29.81 "Hg15 mi
12:00 AM64 °FOvercast.8 mph83%29.83 "Hg15 mi
11:00 PM
Tue, Jun 30
63 °FOvercast.6 mph88%29.85 "Hg15 mi
10:00 PM64 °FOvercast.9 mph83%29.86 "Hg15 mi
9:00 PM64 °FOvercast.12 mph88%29.86 "Hg15 mi
8:45 PM64 °FOvercast.9 mph88%29.86 "Hg15 mi
8:00 PM64 °FMild.6 mph68%29.87 "Hg15 mi
7:00 PM64 °FLight rain. More clouds than sun.7 mph83%29.88 "Hg10 mi
6:00 PM68 °FSprinkles. Cloudy.12 mph69%29.89 "Hg15 mi
5:00 PM73 °FSprinkles. Mostly cloudy.16 mph53%29.88 "Hg15 mi
4:00 PM75 °FCloudy.10 mph50%29.89 "Hg15 mi
Weather by CustomWeather, © 2015

See weather overviewHow to use our weather pages